Weather reports worldwide

Advertisment
Bradford, United Kingdom (99171): temperature & dewpoint: 13.02.2019 13:00:00 - 19.02.2019 13:00:00 (GMT)Bradford, United Kingdom (99171): temperature -20cm & temperature -100cm: 13.02.2019 13:00:00 - 19.02.2019 13:00:00 (GMT)Bradford, United Kingdom (99171): precipitation: 13.02.2019 13:00:00 - 19.02.2019 13:00:00 (GMT)
Date & Time tt [°C] td [°C] tt -20cm [°C] tt -100cm [°C] rr [mm]
19.02.2019 13:00:00 8,4 2,4 - - 0,0
19.02.2019 12:00:00 8,1 2,5 - - 0,0
19.02.2019 11:00:00 8,1 3,4 - - 0,0
19.02.2019 10:00:00 7,3 4,0 - - 0,0
19.02.2019 09:00:00 6,9 4,5 5,7 5,7 0,0
19.02.2019 08:00:00 6,2 4,5 - - 0,0
19.02.2019 07:00:00 6,0 4,3 - - 1,2
19.02.2019 06:00:00 6,6 5,0 - - 0,2
19.02.2019 05:00:00 6,7 5,1 - - 0,4
19.02.2019 04:00:00 6,8 5,1 - - 0,2
19.02.2019 03:00:00 7,0 4,7 - - 0,0
19.02.2019 02:00:00 7,1 4,7 - - 0,0
19.02.2019 01:00:00 7,2 5,1 - - 0,2
19.02.2019 00:00:00 7,2 5,0 - - 0,0
18.02.2019 23:00:00 6,7 4,9 - - 0,4
18.02.2019 22:00:00 7,3 4,1 - - 0,0
18.02.2019 21:00:00 7,3 3,7 - - 0,0
18.02.2019 20:00:00 7,4 3,3 - - 0,0
18.02.2019 19:00:00 7,4 3,4 - - 0,0
18.02.2019 18:00:00 7,6 3,3 - - 0,0
18.02.2019 17:00:00 7,2 3,3 - - 0,0
18.02.2019 16:00:00 7,9 3,7 - - 0,0
18.02.2019 15:00:00 9,6 1,2 - - 0,0
18.02.2019 14:00:00 9,8 1,8 - - 0,0
18.02.2019 13:00:00 9,6 2,4 - - 0,0
18.02.2019 12:00:00 10,3 4,1 - - 0,0
18.02.2019 11:00:00 8,8 4,0 - - 0,0
18.02.2019 10:00:00 8,9 4,1 - - 0,0
18.02.2019 09:00:00 8,0 4,5 5,4 5,7 0,0
18.02.2019 08:00:00 8,1 3,8 - - 0,0
18.02.2019 07:00:00 8,1 4,0 - - 0,0
18.02.2019 06:00:00 8,2 4,2 - - 0,0
18.02.2019 05:00:00 8,1 4,4 - - 0,0
18.02.2019 04:00:00 8,2 4,4 - - 0,0
18.02.2019 03:00:00 8,3 4,3 - - 0,0
18.02.2019 02:00:00 8,5 4,2 - - 0,0
18.02.2019 01:00:00 8,6 4,0 - - 0,0
18.02.2019 00:00:00 9,3 3,7 - - 0,0
17.02.2019 23:00:00 8,9 2,9 - - 0,0
17.02.2019 22:00:00 8,5 2,8 - - 0,0
17.02.2019 21:00:00 8,7 2,3 - - 0,0
17.02.2019 20:00:00 9,2 2,6 - - 0,0
17.02.2019 19:00:00 9,7 4,1 - - 0,0
17.02.2019 18:00:00 10,3 4,3 - - 0,0
17.02.2019 17:00:00 10,8 4,9 - - 0,0
17.02.2019 16:00:00 11,3 6,1 - - 0,0
17.02.2019 15:00:00 11,3 6,1 - - 0,0
17.02.2019 14:00:00 11,9 5,9 - - 0,0
17.02.2019 13:00:00 11,9 6,1 - - 0,0
17.02.2019 12:00:00 11,5 4,9 - - 0,0
17.02.2019 11:00:00 - - - - 0,0
17.02.2019 10:00:00 11,5 4,1 - - 0,0
17.02.2019 09:00:00 8,7 5,8 5,2 5,7 0,0
17.02.2019 08:00:00 5,2 4,4 - - 0,0
17.02.2019 07:00:00 5,9 4,7 - - 0,0
17.02.2019 06:00:00 6,6 5,3 - - 0,0
17.02.2019 05:00:00 6,6 4,8 - - 0,0
17.02.2019 04:00:00 8,8 4,8 - - 0,0
17.02.2019 03:00:00 8,8 4,8 - - 0,0
17.02.2019 02:00:00 9,6 5,5 - - 0,0
17.02.2019 01:00:00 10,1 6,0 - - 0,0
17.02.2019 00:00:00 11,2 7,2 - - 0,0
16.02.2019 23:00:00 11,8 8,3 - - 0,0
16.02.2019 22:00:00 12,0 8,4 - - 0,0
16.02.2019 21:00:00 12,0 8,3 - - 0,0
16.02.2019 20:00:00 11,8 8,1 - - 0,0
16.02.2019 19:00:00 11,2 6,7 - - 0,0
16.02.2019 18:00:00 11,5 5,9 - - 0,0
16.02.2019 17:00:00 11,6 5,2 - - 0,0
16.02.2019 16:00:00 11,8 4,8 - - 0,0
16.02.2019 15:00:00 12,0 4,1 - - 0,0
16.02.2019 14:00:00 12,4 4,8 - - 0,0
16.02.2019 13:00:00 11,6 4,1 - - 0,0
16.02.2019 12:00:00 11,3 4,6 - - 0,0
16.02.2019 11:00:00 11,1 4,8 - - 0,0
16.02.2019 10:00:00 10,0 5,6 - - 0,0
16.02.2019 09:00:00 9,2 5,2 4,7 5,7 0,0
16.02.2019 08:00:00 8,2 5,2 - - 0,0
16.02.2019 07:00:00 8,2 5,5 - - 0,0
16.02.2019 06:00:00 7,6 4,2 - - 0,0
16.02.2019 05:00:00 8,4 5,7 - - 0,0
16.02.2019 04:00:00 8,5 6,1 - - 0,0
16.02.2019 03:00:00 9,6 6,5 - - 0,0
16.02.2019 02:00:00 10,3 6,1 - - 0,0
16.02.2019 01:00:00 10,7 6,0 - - 0,0
16.02.2019 00:00:00 10,2 3,8 - - 0,0
15.02.2019 23:00:00 11,3 4,1 - - 0,0
15.02.2019 22:00:00 7,6 2,7 - - 0,0
15.02.2019 21:00:00 8,3 2,2 - - 0,0
15.02.2019 20:00:00 8,6 2,7 - - 0,0
15.02.2019 19:00:00 9,1 2,1 - - 0,0
15.02.2019 18:00:00 10,3 2,3 - - 0,0
15.02.2019 17:00:00 11,8 3,0 - - 0,0
15.02.2019 16:00:00 12,7 2,9 - - 0,0
15.02.2019 15:00:00 13,5 2,3 - - 0,0
15.02.2019 14:00:00 13,7 1,4 - - 0,0
15.02.2019 13:00:00 14,0 1,5 - - 0,0
15.02.2019 12:00:00 13,6 1,0 - - 0,0
15.02.2019 11:00:00 11,1 1,7 - - 0,0
15.02.2019 10:00:00 8,9 1,4 - - 0,0
15.02.2019 09:00:00 6,8 2,0 4,9 5,7 0,0
15.02.2019 08:00:00 4,0 0,7 - - 0,0
15.02.2019 07:00:00 3,7 -0,5 - - 0,0
15.02.2019 06:00:00 4,8 0,2 - - 0,0
15.02.2019 05:00:00 5,4 0,3 - - 0,0
15.02.2019 04:00:00 2,3 0,2 - - 0,0
15.02.2019 03:00:00 1,6 0,3 - - 0,0
15.02.2019 02:00:00 1,8 -0,3 - - 0,0
15.02.2019 01:00:00 2,8 0,9 - - 0,0
15.02.2019 00:00:00 2,6 -0,2 - - 0,0
14.02.2019 23:00:00 3,9 0,5 - - 0,0
14.02.2019 22:00:00 4,3 0,0 - - 0,0
14.02.2019 21:00:00 5,5 0,2 - - 0,0
14.02.2019 20:00:00 6,2 -0,4 - - 0,0
14.02.2019 19:00:00 7,2 -1,8 - - 0,0
14.02.2019 18:00:00 8,9 -2,5 - - 0,0
14.02.2019 17:00:00 10,8 -3,3 - - 0,0
14.02.2019 16:00:00 12,3 -5,1 - - 0,0
14.02.2019 15:00:00 13,8 -5,6 - - 0,0
14.02.2019 14:00:00 14,1 -3,2 - - 0,0
14.02.2019 13:00:00 12,7 1,4 - - 0,0
14.02.2019 12:00:00 12,1 0,0 - - 0,0
14.02.2019 11:00:00 10,4 2,5 - - 0,0
14.02.2019 10:00:00 6,8 2,7 - - 0,0
14.02.2019 09:00:00 4,7 3,4 5,2 5,5 0,0
14.02.2019 08:00:00 3,0 2,4 - - 0,0
14.02.2019 07:00:00 3,4 2,3 - - 0,0
14.02.2019 06:00:00 4,5 3,1 - - 0,0
14.02.2019 05:00:00 4,8 3,3 - - 0,0
14.02.2019 04:00:00 5,8 3,8 - - 0,0
14.02.2019 03:00:00 5,6 3,2 - - 0,0
14.02.2019 02:00:00 6,5 4,1 - - 0,0
14.02.2019 01:00:00 6,7 4,1 - - 0,0
14.02.2019 00:00:00 7,0 4,2 - - 0,0
13.02.2019 23:00:00 7,5 4,3 - - 0,0
13.02.2019 22:00:00 7,7 4,2 - - 0,0
13.02.2019 21:00:00 8,0 4,3 - - 0,0
13.02.2019 20:00:00 7,5 4,4 - - 0,0
13.02.2019 19:00:00 7,8 4,7 - - 0,0
13.02.2019 18:00:00 8,3 4,5 - - 0,0
13.02.2019 17:00:00 8,9 4,4 - - 0,0
13.02.2019 16:00:00 9,4 4,4 - - 0,0
13.02.2019 15:00:00 9,6 4,5 - - 0,0
13.02.2019 14:00:00 9,6 4,5 - - 0,0
13.02.2019 13:00:00 9,7 4,7 - - 0,0

tt = temperature
td = dewpoint
tt -20cm = temperature -20cm
tt -100cm = temperature -100cm
rr = precipitation

Next stations